Year,Month,Day,Hour,Minute,Value (Times are PST for temperature in C)
2015,06,09,00,00,18.50
2015,06,09,00,01,18.60
2015,06,09,00,02,18.60
2015,06,09,00,03,18.60
2015,06,09,00,04,18.50
2015,06,09,00,05,18.50
2015,06,09,00,06,18.50
2015,06,09,00,07,18.40
2015,06,09,00,08,18.40
2015,06,09,00,09,18.40
2015,06,09,00,10,18.40
2015,06,09,00,11,18.40
2015,06,09,00,12,18.40
2015,06,09,00,13,18.40
2015,06,09,00,14,18.40
2015,06,09,00,15,18.30
2015,06,09,00,16,18.30
2015,06,09,00,17,18.30
2015,06,09,00,18,18.30
2015,06,09,00,19,18.30
2015,06,09,00,20,18.30
2015,06,09,00,21,18.30
2015,06,09,00,22,18.20
2015,06,09,00,23,18.20
2015,06,09,00,24,18.20
2015,06,09,00,25,18.20
2015,06,09,00,26,18.20
2015,06,09,00,27,18.20
2015,06,09,00,28,18.10
2015,06,09,00,29,18.10
2015,06,09,00,30,18.10
2015,06,09,00,31,18.10
2015,06,09,00,32,18.10
2015,06,09,00,33,18.10
2015,06,09,00,34,18.10
2015,06,09,00,35,18.10
2015,06,09,00,36,18.10
2015,06,09,00,37,18.10
2015,06,09,00,38,18.10
2015,06,09,00,39,18.10
2015,06,09,00,40,18.00
2015,06,09,00,41,18.00
2015,06,09,00,42,18.00
2015,06,09,00,43,18.00
2015,06,09,00,44,18.00
2015,06,09,00,45,18.00
2015,06,09,00,46,17.90
2015,06,09,00,47,17.90
2015,06,09,00,48,17.90
2015,06,09,00,49,17.90
2015,06,09,00,50,17.90
2015,06,09,00,51,17.90
2015,06,09,00,52,17.90
2015,06,09,00,53,17.90
2015,06,09,00,54,18.00
2015,06,09,00,55,18.00
2015,06,09,00,56,18.00
2015,06,09,00,57,18.00
2015,06,09,00,58,18.00
2015,06,09,00,59,18.10
2015,06,09,01,00,18.10
2015,06,09,01,01,18.10
2015,06,09,01,02,18.10
2015,06,09,01,03,18.10
2015,06,09,01,04,18.20
2015,06,09,01,05,18.20
2015,06,09,01,06,18.20
2015,06,09,01,07,18.20
2015,06,09,01,08,18.20
2015,06,09,01,09,18.20
2015,06,09,01,10,18.30
2015,06,09,01,11,18.30
2015,06,09,01,12,18.30
2015,06,09,01,13,18.30
2015,06,09,01,14,18.30
2015,06,09,01,15,18.30
2015,06,09,01,16,18.30
2015,06,09,01,17,18.20
2015,06,09,01,18,18.20
2015,06,09,01,19,18.20
2015,06,09,01,20,18.20
2015,06,09,01,21,18.20
2015,06,09,01,22,18.20
2015,06,09,01,23,18.20
2015,06,09,01,24,18.10
2015,06,09,01,25,18.10
2015,06,09,01,26,18.10
2015,06,09,01,27,18.00
2015,06,09,01,28,18.00
2015,06,09,01,29,17.90
2015,06,09,01,30,17.90
2015,06,09,01,31,17.90
2015,06,09,01,32,17.90
2015,06,09,01,33,17.80
2015,06,09,01,34,17.80
2015,06,09,01,35,17.80
2015,06,09,01,36,17.70
2015,06,09,01,37,17.70
2015,06,09,01,38,17.70
2015,06,09,01,39,17.70
2015,06,09,01,40,17.70
2015,06,09,01,41,17.70
2015,06,09,01,42,17.70
2015,06,09,01,43,17.80
2015,06,09,01,44,17.80
2015,06,09,01,45,17.80
2015,06,09,01,46,17.80
2015,06,09,01,47,17.80
2015,06,09,01,48,17.80
2015,06,09,01,49,17.80
2015,06,09,01,50,17.80
2015,06,09,01,51,17.80
2015,06,09,01,52,17.80
2015,06,09,01,53,17.80
2015,06,09,01,54,17.80
2015,06,09,01,55,17.80
2015,06,09,01,56,17.80
2015,06,09,01,57,17.80
2015,06,09,01,58,17.70
2015,06,09,01,59,17.70
2015,06,09,02,00,17.70
2015,06,09,02,01,17.60
2015,06,09,02,02,17.60
2015,06,09,02,03,17.50
2015,06,09,02,04,17.40
2015,06,09,02,05,17.40
2015,06,09,02,06,17.30
2015,06,09,02,07,17.30
2015,06,09,02,08,17.30
2015,06,09,02,09,17.20
2015,06,09,02,10,17.20
2015,06,09,02,11,17.20
2015,06,09,02,12,17.10
2015,06,09,02,13,17.10
2015,06,09,02,14,17.10
2015,06,09,02,15,17.00
2015,06,09,02,16,17.00
2015,06,09,02,17,17.00
2015,06,09,02,18,16.90
2015,06,09,02,19,16.80
2015,06,09,02,20,16.80
2015,06,09,02,21,16.70
2015,06,09,02,22,16.70
2015,06,09,02,23,16.60
2015,06,09,02,24,16.60
2015,06,09,02,25,16.60
2015,06,09,02,26,16.60
2015,06,09,02,27,16.60
2015,06,09,02,28,16.60
2015,06,09,02,29,16.60
2015,06,09,02,30,16.60
2015,06,09,02,31,16.60
2015,06,09,02,32,16.60
2015,06,09,02,33,16.50
2015,06,09,02,34,16.50
2015,06,09,02,35,16.50
2015,06,09,02,36,16.50
2015,06,09,02,37,16.50
2015,06,09,02,38,16.50
2015,06,09,02,39,16.50
2015,06,09,02,40,16.50
2015,06,09,02,41,16.40
2015,06,09,02,42,16.40
2015,06,09,02,43,16.40
2015,06,09,02,44,16.40
2015,06,09,02,45,16.30
2015,06,09,02,46,16.30
2015,06,09,02,47,16.20
2015,06,09,02,48,16.20
2015,06,09,02,49,16.10
2015,06,09,02,50,16.10
2015,06,09,02,51,16.00
2015,06,09,02,52,16.00
2015,06,09,02,53,15.90
2015,06,09,02,54,15.80
2015,06,09,02,55,15.80
2015,06,09,02,56,15.80
2015,06,09,02,57,15.70
2015,06,09,02,58,15.70
2015,06,09,02,59,15.70
2015,06,09,03,00,15.70
2015,06,09,03,01,15.70
2015,06,09,03,02,15.70
2015,06,09,03,03,15.60
2015,06,09,03,04,15.60
2015,06,09,03,05,15.60
2015,06,09,03,06,15.50
2015,06,09,03,07,15.50
2015,06,09,03,08,15.40
2015,06,09,03,09,15.40
2015,06,09,03,10,15.30
2015,06,09,03,11,15.30
2015,06,09,03,12,15.30
2015,06,09,03,13,15.30
2015,06,09,03,14,15.20
2015,06,09,03,15,15.10
2015,06,09,03,16,15.10
2015,06,09,03,17,15.00
2015,06,09,03,18,15.00
2015,06,09,03,19,15.00
2015,06,09,03,20,15.00
2015,06,09,03,21,15.00
2015,06,09,03,22,15.00
2015,06,09,03,23,15.00
2015,06,09,03,24,15.00
2015,06,09,03,25,15.00
2015,06,09,03,26,15.00
2015,06,09,03,27,14.90
2015,06,09,03,28,14.80
2015,06,09,03,29,14.80
2015,06,09,03,30,14.80
2015,06,09,03,31,14.70
2015,06,09,03,32,14.70
2015,06,09,03,33,14.70
2015,06,09,03,34,14.70
2015,06,09,03,35,14.60
2015,06,09,03,36,14.60
2015,06,09,03,37,14.60
2015,06,09,03,38,14.60
2015,06,09,03,39,14.60
2015,06,09,03,40,14.60
2015,06,09,03,41,14.50
2015,06,09,03,42,14.50
2015,06,09,03,43,14.50
2015,06,09,03,44,14.50
2015,06,09,03,45,14.50
2015,06,09,03,46,14.50
2015,06,09,03,47,14.40
2015,06,09,03,48,14.40
2015,06,09,03,49,14.40
2015,06,09,03,50,14.40
2015,06,09,03,51,14.40
2015,06,09,03,52,14.40
2015,06,09,03,53,14.40
2015,06,09,03,54,14.40
2015,06,09,03,55,14.40
2015,06,09,03,56,14.40
2015,06,09,03,57,14.40
2015,06,09,03,58,14.40
2015,06,09,03,59,14.40
2015,06,09,04,00,14.40
2015,06,09,04,01,14.40
2015,06,09,04,02,14.40
2015,06,09,04,03,14.50
2015,06,09,04,04,14.50
2015,06,09,04,05,14.60
2015,06,09,04,06,14.60
2015,06,09,04,07,14.70
2015,06,09,04,08,14.80
2015,06,09,04,09,14.80
2015,06,09,04,10,14.90
2015,06,09,04,11,15.00
2015,06,09,04,12,15.00
2015,06,09,04,13,15.00
2015,06,09,04,14,15.00
2015,06,09,04,15,15.00
2015,06,09,04,16,15.00
2015,06,09,04,17,15.00
2015,06,09,04,18,15.10
2015,06,09,04,19,15.20
2015,06,09,04,20,15.20
2015,06,09,04,21,15.30
2015,06,09,04,22,15.30
2015,06,09,04,23,15.30
2015,06,09,04,24,15.30
2015,06,09,04,25,15.30
2015,06,09,04,26,15.30
2015,06,09,04,27,15.30
2015,06,09,04,28,15.30
2015,06,09,04,29,15.40
2015,06,09,04,30,15.40
2015,06,09,04,31,15.40
2015,06,09,04,32,15.40
2015,06,09,04,33,15.40
2015,06,09,04,34,15.40
2015,06,09,04,35,15.40
2015,06,09,04,36,15.40
2015,06,09,04,37,15.40
2015,06,09,04,38,15.40
2015,06,09,04,39,15.30
2015,06,09,04,40,15.30
2015,06,09,04,41,15.30
2015,06,09,04,42,15.30
2015,06,09,04,43,15.30
2015,06,09,04,44,15.30
2015,06,09,04,45,15.30
2015,06,09,04,46,15.20
2015,06,09,04,47,15.20
2015,06,09,04,48,15.20
2015,06,09,04,49,15.20
2015,06,09,04,50,15.20
2015,06,09,04,51,15.20
2015,06,09,04,52,15.20
2015,06,09,04,53,15.10
2015,06,09,04,54,15.10
2015,06,09,04,55,15.10
2015,06,09,04,56,15.10
2015,06,09,04,57,15.20
2015,06,09,04,58,15.20
2015,06,09,04,59,15.20
2015,06,09,05,00,15.30
2015,06,09,05,01,15.30
2015,06,09,05,02,15.30
2015,06,09,05,03,15.30
2015,06,09,05,04,15.30
2015,06,09,05,05,15.40
2015,06,09,05,06,15.40
2015,06,09,05,07,15.40
2015,06,09,05,08,15.40
2015,06,09,05,09,15.40
2015,06,09,05,10,15.50
2015,06,09,05,11,15.50
2015,06,09,05,12,15.50
2015,06,09,05,13,15.50
2015,06,09,05,14,15.50
2015,06,09,05,15,15.50
2015,06,09,05,16,15.50
2015,06,09,05,17,15.50
2015,06,09,05,18,15.50
2015,06,09,05,19,15.50
2015,06,09,05,20,15.50
2015,06,09,05,21,15.50
2015,06,09,05,22,15.60
2015,06,09,05,23,15.60
2015,06,09,05,24,15.60
2015,06,09,05,25,15.50
2015,06,09,05,26,15.50
2015,06,09,05,27,15.50
2015,06,09,05,28,15.50
2015,06,09,05,29,15.50
2015,06,09,05,30,15.50
2015,06,09,05,31,15.50
2015,06,09,05,32,15.50
2015,06,09,05,33,15.60
2015,06,09,05,34,15.60
2015,06,09,05,35,15.60
2015,06,09,05,36,15.70
2015,06,09,05,37,15.70
2015,06,09,05,38,15.70
2015,06,09,05,39,15.70
2015,06,09,05,40,15.70
2015,06,09,05,41,15.70
2015,06,09,05,42,15.70
2015,06,09,05,43,15.80
2015,06,09,05,44,15.80
2015,06,09,05,45,15.80
2015,06,09,05,46,15.80
2015,06,09,05,47,15.80
2015,06,09,05,48,15.80
2015,06,09,05,49,15.90
2015,06,09,05,50,15.90
2015,06,09,05,51,15.90
2015,06,09,05,52,15.90
2015,06,09,05,53,15.90
2015,06,09,05,54,16.00
2015,06,09,05,55,16.00
2015,06,09,05,56,16.00
2015,06,09,05,57,16.00
2015,06,09,05,58,16.00
2015,06,09,05,59,16.00
2015,06,09,06,00,16.10
2015,06,09,06,01,16.10
2015,06,09,06,02,16.10
2015,06,09,06,03,16.00
2015,06,09,06,04,16.00
2015,06,09,06,05,16.00
2015,06,09,06,06,16.00
2015,06,09,06,07,16.00
2015,06,09,06,08,16.00
2015,06,09,06,09,16.00
2015,06,09,06,10,16.10
2015,06,09,06,11,16.10
2015,06,09,06,12,16.10
2015,06,09,06,13,16.10
2015,06,09,06,14,16.10
2015,06,09,06,15,16.10
2015,06,09,06,16,16.10
2015,06,09,06,17,16.10
2015,06,09,06,18,16.10
2015,06,09,06,19,16.10
2015,06,09,06,20,16.10
2015,06,09,06,21,16.10
2015,06,09,06,22,16.20
2015,06,09,06,23,16.20
2015,06,09,06,24,16.20
2015,06,09,06,25,16.20
2015,06,09,06,26,16.20
2015,06,09,06,27,16.20
2015,06,09,06,28,16.20
2015,06,09,06,29,16.20
2015,06,09,06,30,16.20
2015,06,09,06,31,16.20
2015,06,09,06,32,16.20
2015,06,09,06,33,16.20
2015,06,09,06,34,16.20
2015,06,09,06,35,16.20
2015,06,09,06,36,16.20
2015,06,09,06,37,16.20
2015,06,09,06,38,16.20
2015,06,09,06,39,16.20
2015,06,09,06,40,16.20
2015,06,09,06,41,16.20
2015,06,09,06,42,16.30
2015,06,09,06,43,16.30
2015,06,09,06,44,16.30
2015,06,09,06,45,16.30
2015,06,09,06,46,16.30
2015,06,09,06,47,16.30
2015,06,09,06,48,16.30
2015,06,09,06,49,16.30
2015,06,09,06,50,16.30
2015,06,09,06,51,16.30
2015,06,09,06,52,16.30
2015,06,09,06,53,16.30
2015,06,09,06,54,16.30
2015,06,09,06,55,16.30
2015,06,09,06,56,16.30
2015,06,09,06,57,16.30
2015,06,09,06,58,16.30
2015,06,09,06,59,16.30
2015,06,09,07,00,16.30
2015,06,09,07,01,16.30
2015,06,09,07,02,16.30
2015,06,09,07,03,16.30
2015,06,09,07,04,16.30
2015,06,09,07,05,16.40
2015,06,09,07,06,16.40
2015,06,09,07,07,16.40
2015,06,09,07,08,16.40
2015,06,09,07,09,16.40
2015,06,09,07,10,16.40
2015,06,09,07,11,16.50
2015,06,09,07,12,16.50
2015,06,09,07,13,16.50
2015,06,09,07,14,16.50
2015,06,09,07,15,16.60
2015,06,09,07,16,16.60
2015,06,09,07,17,16.60
2015,06,09,07,18,16.60
2015,06,09,07,19,16.70
2015,06,09,07,20,16.70
2015,06,09,07,21,16.70
2015,06,09,07,22,16.70
2015,06,09,07,23,16.70
2015,06,09,07,24,16.70
2015,06,09,07,25,16.80
2015,06,09,07,26,16.80
2015,06,09,07,27,16.80
2015,06,09,07,28,16.80
2015,06,09,07,29,16.90
2015,06,09,07,30,16.90
2015,06,09,07,31,16.90
2015,06,09,07,32,17.00
2015,06,09,07,33,17.00
2015,06,09,07,34,17.00
2015,06,09,07,35,17.10
2015,06,09,07,36,17.10
2015,06,09,07,37,17.10
2015,06,09,07,38,17.10
2015,06,09,07,39,17.10
2015,06,09,07,40,17.10
2015,06,09,07,41,17.20
2015,06,09,07,42,17.20
2015,06,09,07,43,17.20
2015,06,09,07,44,17.30
2015,06,09,07,45,17.30
2015,06,09,07,46,17.30
2015,06,09,07,47,17.30
2015,06,09,07,48,17.40
2015,06,09,07,49,17.40
2015,06,09,07,50,17.40
2015,06,09,07,51,17.50
2015,06,09,07,52,17.50
2015,06,09,07,53,17.60
2015,06,09,07,54,17.60
2015,06,09,07,55,17.70
2015,06,09,07,56,17.70
2015,06,09,07,57,17.80
2015,06,09,07,58,17.80
2015,06,09,07,59,17.90
2015,06,09,08,00,17.90
2015,06,09,08,01,17.90
2015,06,09,08,02,17.90
2015,06,09,08,03,17.90
2015,06,09,08,04,17.90
2015,06,09,08,05,17.90
2015,06,09,08,06,17.90
2015,06,09,08,07,17.90
2015,06,09,08,08,17.90
2015,06,09,08,09,17.90
2015,06,09,08,10,17.90
2015,06,09,08,11,17.90
2015,06,09,08,12,17.90
2015,06,09,08,13,17.90
2015,06,09,08,14,17.90
2015,06,09,08,15,18.00
2015,06,09,08,16,18.00
2015,06,09,08,17,18.10
2015,06,09,08,18,18.10
2015,06,09,08,19,18.10
2015,06,09,08,20,18.10
2015,06,09,08,21,18.10
2015,06,09,08,22,18.20
2015,06,09,08,23,18.20
2015,06,09,08,24,18.20
2015,06,09,08,25,18.20
2015,06,09,08,26,18.20
2015,06,09,08,27,18.20
2015,06,09,08,28,18.20
2015,06,09,08,29,18.20
2015,06,09,08,30,18.20
2015,06,09,08,31,18.10
2015,06,09,08,32,18.10
2015,06,09,08,33,18.00
2015,06,09,08,34,17.90
2015,06,09,08,35,17.90
2015,06,09,08,36,17.80
2015,06,09,08,37,17.80
2015,06,09,08,38,17.80
2015,06,09,08,39,17.80
2015,06,09,08,40,17.90
2015,06,09,08,41,17.90
2015,06,09,08,42,17.90
2015,06,09,08,43,18.00
2015,06,09,08,44,18.00
2015,06,09,08,45,18.10
2015,06,09,08,46,18.20
2015,06,09,08,47,18.30
2015,06,09,08,48,18.30
2015,06,09,08,49,18.40
2015,06,09,08,50,18.50
2015,06,09,08,51,18.60
2015,06,09,08,52,18.60
2015,06,09,08,53,18.70
2015,06,09,08,54,18.70
2015,06,09,08,55,18.70
2015,06,09,08,56,18.70
2015,06,09,08,57,18.80
2015,06,09,08,58,18.80
2015,06,09,08,59,18.80
2015,06,09,09,00,18.90
2015,06,09,09,01,18.90
2015,06,09,09,02,18.90
2015,06,09,09,03,18.90
2015,06,09,09,04,18.90
2015,06,09,09,05,19.00
2015,06,09,09,06,19.00
2015,06,09,09,07,19.10
2015,06,09,09,08,19.00
2015,06,09,09,09,19.10
2015,06,09,09,10,19.10
2015,06,09,09,11,19.10
2015,06,09,09,12,19.10
2015,06,09,09,13,19.10
2015,06,09,09,14,19.10
2015,06,09,09,15,19.10
2015,06,09,09,16,19.10
2015,06,09,09,17,19.10
2015,06,09,09,18,19.20
2015,06,09,09,19,19.10
2015,06,09,09,20,19.10
2015,06,09,09,21,19.10
2015,06,09,09,22,19.10
2015,06,09,09,23,19.10
2015,06,09,09,24,19.10
2015,06,09,09,25,19.10
2015,06,09,09,26,19.10
2015,06,09,09,27,19.10
2015,06,09,09,28,19.20
2015,06,09,09,29,19.20
2015,06,09,09,30,19.20
2015,06,09,09,31,19.20
2015,06,09,09,32,19.20
2015,06,09,09,33,19.30
2015,06,09,09,34,19.30
2015,06,09,09,35,19.30
2015,06,09,09,36,19.30
2015,06,09,09,37,19.20
2015,06,09,09,38,19.20
2015,06,09,09,39,19.00
2015,06,09,09,40,18.90
2015,06,09,09,41,18.90
2015,06,09,09,42,18.80
2015,06,09,09,43,18.80
2015,06,09,09,44,18.80
2015,06,09,09,45,18.80
2015,06,09,09,46,18.80
2015,06,09,09,47,18.70
2015,06,09,09,48,18.70
2015,06,09,09,49,18.70
2015,06,09,09,50,18.80
2015,06,09,09,51,18.80
2015,06,09,09,52,18.90
2015,06,09,09,53,18.90
2015,06,09,09,54,18.90
2015,06,09,09,55,18.90
2015,06,09,09,56,19.00
2015,06,09,09,57,19.00
2015,06,09,09,58,19.00
2015,06,09,09,59,19.00
2015,06,09,10,00,19.00
2015,06,09,10,01,19.10
2015,06,09,10,02,19.10
2015,06,09,10,03,19.10
2015,06,09,10,04,19.10
2015,06,09,10,05,19.10
2015,06,09,10,06,19.10
2015,06,09,10,07,19.00
2015,06,09,10,08,19.00
2015,06,09,10,09,18.90
2015,06,09,10,10,18.90
2015,06,09,10,11,19.00
2015,06,09,10,12,19.00
2015,06,09,10,13,19.10
2015,06,09,10,14,19.10
2015,06,09,10,15,19.10
2015,06,09,10,16,19.10
2015,06,09,10,17,19.00
2015,06,09,10,18,19.10
2015,06,09,10,19,19.10
2015,06,09,10,20,19.20
2015,06,09,10,21,19.20
2015,06,09,10,22,19.30
2015,06,09,10,23,19.40
2015,06,09,10,24,19.40
2015,06,09,10,25,19.50
2015,06,09,10,26,19.50
2015,06,09,10,27,19.40
2015,06,09,10,28,19.40
2015,06,09,10,29,19.40
2015,06,09,10,30,19.40
2015,06,09,10,31,19.40
2015,06,09,10,32,19.30
2015,06,09,10,33,19.30
2015,06,09,10,34,19.30
2015,06,09,10,35,19.30
2015,06,09,10,36,19.30
2015,06,09,10,37,19.20
2015,06,09,10,38,19.20
2015,06,09,10,39,19.10
2015,06,09,10,40,19.20
2015,06,09,10,41,19.20
2015,06,09,10,42,19.20
2015,06,09,10,43,19.30
2015,06,09,10,44,19.40
2015,06,09,10,45,19.50
2015,06,09,10,46,19.50
2015,06,09,10,47,19.50
2015,06,09,10,48,19.60
2015,06,09,10,49,19.50
2015,06,09,10,50,19.50
2015,06,09,10,51,19.50
2015,06,09,10,52,19.50
2015,06,09,10,53,19.40
2015,06,09,10,54,19.30
2015,06,09,10,55,19.40
2015,06,09,10,56,19.40
2015,06,09,10,57,19.40
2015,06,09,10,58,19.40
2015,06,09,10,59,19.40
2015,06,09,11,00,19.40
2015,06,09,11,01,19.40
2015,06,09,11,02,19.50
2015,06,09,11,03,19.50
2015,06,09,11,04,19.50
2015,06,09,11,05,19.60
2015,06,09,11,06,19.60
2015,06,09,11,07,19.70
2015,06,09,11,08,19.70
2015,06,09,11,09,19.80
2015,06,09,11,10,19.80
2015,06,09,11,11,19.80
2015,06,09,11,12,19.80
2015,06,09,11,13,19.80
2015,06,09,11,14,19.90
2015,06,09,11,15,20.00
2015,06,09,11,16,20.00
2015,06,09,11,17,20.10
2015,06,09,11,18,20.10
2015,06,09,11,19,20.10
2015,06,09,11,20,20.10
2015,06,09,11,21,20.20
2015,06,09,11,22,20.20
2015,06,09,11,23,20.20
2015,06,09,11,24,20.20
2015,06,09,11,25,20.20
2015,06,09,11,26,20.20
2015,06,09,11,27,20.20
2015,06,09,11,28,20.20
2015,06,09,11,29,20.20
2015,06,09,11,30,20.20
2015,06,09,11,31,20.20
2015,06,09,11,32,20.20
2015,06,09,11,33,20.20
2015,06,09,11,34,20.20
2015,06,09,11,35,20.10
2015,06,09,11,36,20.20
2015,06,09,11,37,20.20
2015,06,09,11,38,20.20
2015,06,09,11,39,20.20
2015,06,09,11,40,20.20
2015,06,09,11,41,20.20
2015,06,09,11,42,20.20
2015,06,09,11,43,20.20
2015,06,09,11,44,20.20
2015,06,09,11,45,20.20
2015,06,09,11,46,20.20
2015,06,09,11,47,20.30
2015,06,09,11,48,20.30
2015,06,09,11,49,20.30
2015,06,09,11,50,20.30
2015,06,09,11,51,20.30
2015,06,09,11,52,20.30
2015,06,09,11,53,20.20
2015,06,09,11,54,20.20
2015,06,09,11,55,20.20
2015,06,09,11,56,20.20
2015,06,09,11,57,20.30
2015,06,09,11,58,20.30
2015,06,09,11,59,20.40
2015,06,09,12,00,20.50
2015,06,09,12,01,20.50
2015,06,09,12,02,20.60
2015,06,09,12,03,20.70
2015,06,09,12,04,20.70
2015,06,09,12,05,20.70
2015,06,09,12,06,20.70
2015,06,09,12,07,20.70
2015,06,09,12,08,20.60
2015,06,09,12,09,20.60
2015,06,09,12,10,20.60
2015,06,09,12,11,20.70
2015,06,09,12,12,20.70
2015,06,09,12,13,20.70
2015,06,09,12,14,20.70
2015,06,09,12,15,20.70
2015,06,09,12,16,20.80
2015,06,09,12,17,20.80
2015,06,09,12,18,20.80
2015,06,09,12,19,20.90
2015,06,09,12,20,21.00
2015,06,09,12,21,21.10
2015,06,09,12,22,21.10
2015,06,09,12,23,21.20
2015,06,09,12,24,21.30
2015,06,09,12,25,21.30
2015,06,09,12,26,21.30
2015,06,09,12,27,21.40
2015,06,09,12,28,21.30
2015,06,09,12,29,21.30
2015,06,09,12,30,21.40
2015,06,09,12,31,21.30
2015,06,09,12,32,21.30
2015,06,09,12,33,21.30
2015,06,09,12,34,21.30
2015,06,09,12,35,21.30
2015,06,09,12,36,21.30
2015,06,09,12,37,21.30
2015,06,09,12,38,21.20
2015,06,09,12,39,21.20
2015,06,09,12,40,21.20
2015,06,09,12,41,21.20
2015,06,09,12,42,21.20
2015,06,09,12,43,21.20
2015,06,09,12,44,21.30
2015,06,09,12,45,21.30
2015,06,09,12,46,21.40
2015,06,09,12,47,21.50
2015,06,09,12,48,21.60
2015,06,09,12,49,21.70
2015,06,09,12,50,21.70
2015,06,09,12,51,21.70
2015,06,09,12,52,21.70
2015,06,09,12,53,21.70
2015,06,09,12,54,21.60
2015,06,09,12,55,21.50
2015,06,09,12,56,21.30
2015,06,09,12,57,21.20
2015,06,09,12,58,21.10
2015,06,09,12,59,21.00
2015,06,09,13,00,21.00
2015,06,09,13,01,21.00
2015,06,09,13,02,21.00
2015,06,09,13,03,21.10
2015,06,09,13,04,21.10
2015,06,09,13,05,21.20
2015,06,09,13,06,21.30
2015,06,09,13,07,21.40
2015,06,09,13,08,21.50
2015,06,09,13,09,21.60
2015,06,09,13,10,21.60
2015,06,09,13,11,21.70
2015,06,09,13,12,21.70
2015,06,09,13,13,21.80
2015,06,09,13,14,21.80
2015,06,09,13,15,21.80
2015,06,09,13,16,21.80
2015,06,09,13,17,21.70
2015,06,09,13,18,21.60
2015,06,09,13,19,21.50
2015,06,09,13,20,21.40
2015,06,09,13,21,21.30
2015,06,09,13,22,21.30
2015,06,09,13,23,21.20
2015,06,09,13,24,21.30
2015,06,09,13,25,21.40
2015,06,09,13,26,21.50
2015,06,09,13,27,21.60
2015,06,09,13,28,21.70
2015,06,09,13,29,21.80
2015,06,09,13,30,21.80
2015,06,09,13,31,21.80
2015,06,09,13,32,21.90
2015,06,09,13,33,21.80
2015,06,09,13,34,21.80
2015,06,09,13,35,21.80
2015,06,09,13,36,21.70
2015,06,09,13,37,21.60
2015,06,09,13,38,21.60
2015,06,09,13,39,21.60
2015,06,09,13,40,21.70
2015,06,09,13,41,21.70
2015,06,09,13,42,21.80
2015,06,09,13,43,21.80
2015,06,09,13,44,21.70
2015,06,09,13,45,21.60
2015,06,09,13,46,21.60
2015,06,09,13,47,21.50
2015,06,09,13,48,21.50
2015,06,09,13,49,21.50
2015,06,09,13,50,21.40
2015,06,09,13,51,21.50
2015,06,09,13,52,21.50
2015,06,09,13,53,21.50
2015,06,09,13,54,21.60
2015,06,09,13,55,21.50
2015,06,09,13,56,21.50
2015,06,09,13,57,21.30
2015,06,09,13,58,21.30
2015,06,09,13,59,21.20
2015,06,09,14,00,21.20
2015,06,09,14,01,21.20
2015,06,09,14,02,21.20
2015,06,09,14,03,21.20
2015,06,09,14,04,21.20
2015,06,09,14,05,21.30
2015,06,09,14,06,21.40
2015,06,09,14,07,21.40
2015,06,09,14,08,21.50
2015,06,09,14,09,21.60
2015,06,09,14,10,21.70
2015,06,09,14,11,21.70
2015,06,09,14,12,21.80
2015,06,09,14,13,21.80
2015,06,09,14,14,21.80
2015,06,09,14,15,21.80
2015,06,09,14,16,21.80
2015,06,09,14,17,21.80
2015,06,09,14,18,21.90
2015,06,09,14,19,21.90
2015,06,09,14,20,21.90
2015,06,09,14,21,22.00
2015,06,09,14,22,22.00
2015,06,09,14,23,22.00
2015,06,09,14,24,22.00
2015,06,09,14,25,22.00
2015,06,09,14,26,21.90
2015,06,09,14,27,21.90
2015,06,09,14,28,21.90
2015,06,09,14,29,22.00
2015,06,09,14,30,22.10
2015,06,09,14,31,22.20
2015,06,09,14,32,22.20
2015,06,09,14,33,22.20
2015,06,09,14,34,22.20
2015,06,09,14,35,22.20
2015,06,09,14,36,22.20
2015,06,09,14,37,22.30
2015,06,09,14,38,22.40
2015,06,09,14,39,22.50
2015,06,09,14,40,22.50
2015,06,09,14,41,22.60
2015,06,09,14,42,22.70
2015,06,09,14,43,22.70
2015,06,09,14,44,22.70
2015,06,09,14,45,22.70
2015,06,09,14,46,22.60
2015,06,09,14,47,22.60
2015,06,09,14,48,22.50
2015,06,09,14,49,22.50
2015,06,09,14,50,22.50
2015,06,09,14,51,22.40
2015,06,09,14,52,22.40
2015,06,09,14,53,22.40
2015,06,09,14,54,22.40
2015,06,09,14,55,22.40
2015,06,09,14,56,22.40
2015,06,09,14,57,22.40
2015,06,09,14,58,22.40
2015,06,09,14,59,22.50
2015,06,09,15,00,22.60
2015,06,09,15,01,22.70
2015,06,09,15,02,22.80
2015,06,09,15,03,22.90
2015,06,09,15,04,23.00
2015,06,09,15,05,23.10
2015,06,09,15,06,23.00
2015,06,09,15,07,23.00
2015,06,09,15,08,22.90
2015,06,09,15,09,22.90
2015,06,09,15,10,22.80
2015,06,09,15,11,22.70
2015,06,09,15,12,22.70
2015,06,09,15,13,22.70
2015,06,09,15,14,22.60
2015,06,09,15,15,22.60
2015,06,09,15,16,22.60
2015,06,09,15,17,22.50
2015,06,09,15,18,22.40
2015,06,09,15,19,22.30
2015,06,09,15,20,22.20
2015,06,09,15,21,22.20
2015,06,09,15,22,22.20
2015,06,09,15,23,22.20
2015,06,09,15,24,22.20
2015,06,09,15,25,22.10
2015,06,09,15,26,22.00
2015,06,09,15,27,22.00
2015,06,09,15,28,22.00
2015,06,09,15,29,22.00
2015,06,09,15,30,22.10
2015,06,09,15,31,22.10
2015,06,09,15,32,22.10
2015,06,09,15,33,22.10
2015,06,09,15,34,22.10
2015,06,09,15,35,22.10
2015,06,09,15,36,22.10
2015,06,09,15,37,22.00
2015,06,09,15,38,22.00
2015,06,09,15,39,22.10
2015,06,09,15,40,22.10
2015,06,09,15,41,22.10
2015,06,09,15,42,22.00
2015,06,09,15,43,22.00
2015,06,09,15,44,22.00
2015,06,09,15,45,21.90
2015,06,09,15,46,21.90
2015,06,09,15,47,21.80
2015,06,09,15,48,21.80
2015,06,09,15,49,21.80
2015,06,09,15,50,21.80
2015,06,09,15,51,21.80
2015,06,09,15,52,21.80
2015,06,09,15,53,21.80
2015,06,09,15,54,21.80
2015,06,09,15,55,21.70
2015,06,09,15,56,21.70
2015,06,09,15,57,21.70
2015,06,09,15,58,21.70
2015,06,09,15,59,21.60
2015,06,09,16,00,21.50
2015,06,09,16,01,21.40
2015,06,09,16,02,21.40
2015,06,09,16,03,21.40
2015,06,09,16,04,21.30
2015,06,09,16,05,21.30
2015,06,09,16,06,21.40
2015,06,09,16,07,21.40
2015,06,09,16,08,21.40
2015,06,09,16,09,21.40
2015,06,09,16,10,21.40
2015,06,09,16,11,21.40
2015,06,09,16,12,21.40
2015,06,09,16,13,21.50
2015,06,09,16,14,21.40
2015,06,09,16,15,21.40
2015,06,09,16,16,21.30
2015,06,09,16,17,21.30
2015,06,09,16,18,21.30
2015,06,09,16,19,21.20
2015,06,09,16,20,21.20
2015,06,09,16,21,21.20
2015,06,09,16,22,21.10
2015,06,09,16,23,21.10
2015,06,09,16,24,21.10
2015,06,09,16,25,21.10
2015,06,09,16,26,21.10
2015,06,09,16,27,21.10
2015,06,09,16,28,21.10
2015,06,09,16,29,21.10
2015,06,09,16,30,21.10
2015,06,09,16,31,21.10
2015,06,09,16,32,21.10
2015,06,09,16,33,21.10
2015,06,09,16,34,21.00
2015,06,09,16,35,21.00
2015,06,09,16,36,20.90
2015,06,09,16,37,20.90
2015,06,09,16,38,20.90
2015,06,09,16,39,20.90
2015,06,09,16,40,21.00
2015,06,09,16,41,21.00
2015,06,09,16,42,21.00
2015,06,09,16,43,21.00
2015,06,09,16,44,21.00
2015,06,09,16,45,21.00
2015,06,09,16,46,20.90
2015,06,09,16,47,20.90
2015,06,09,16,48,20.80
2015,06,09,16,49,20.80
2015,06,09,16,50,20.90
2015,06,09,16,51,20.90
2015,06,09,16,52,21.00
2015,06,09,16,53,21.10
2015,06,09,16,54,21.10
2015,06,09,16,55,21.20
2015,06,09,16,56,21.30
2015,06,09,16,57,21.30
2015,06,09,16,58,21.30
2015,06,09,16,59,21.30
2015,06,09,17,00,21.30
2015,06,09,17,01,21.20
2015,06,09,17,02,21.20
2015,06,09,17,03,21.20
2015,06,09,17,04,21.30
2015,06,09,17,05,21.30
2015,06,09,17,06,21.30
2015,06,09,17,07,21.20
2015,06,09,17,08,21.20
2015,06,09,17,09,21.30
2015,06,09,17,10,21.40
2015,06,09,17,11,21.50
2015,06,09,17,12,21.60
2015,06,09,17,13,21.70
2015,06,09,17,14,21.80
2015,06,09,17,15,21.70
2015,06,09,17,16,21.70
2015,06,09,17,17,21.70
2015,06,09,17,18,21.70
2015,06,09,17,19,21.80